Starlink 32283

operational
NORAD ID: 62425 Int'l Des: 2024-249 Owner: SPXS Country: US Constellation: starlink
LEOCIRCULAR

About Starlink 32283

Description loading...

Live Position

Loading 3D Globe...

Upcoming Passes

Altitude History

Altitude vs Time

uPlot chart will show altitude changes over time

Two-Line Element Set

1 62425U 24249S 25306.44036005 .00031233 00000-0 11389-2 0 9994
2 62425 43.0011 309.1486 0000646 266.8940 93.1838 15.27602900 48390
Epoch: Nov 2, 2025 • Age: 13 hours

Current Status

Altitude 486.5 km
Velocity 7.63 km/s
Sub-Earth Point 43.08°N, 3.11°W
Launch Date Dec 23, 2024
Age 0.8 years
Type internet

Technical Details

Classification Payload
Mass 730.00 kg
Dry Mass 700.00 kg
Total Mass 730.00 kg
Length 0.30 m
Diameter 4.10 m
Span 29.00 m
Shape Box + pan
Manufacturer SPXS
Bus Type Starlink V2M
Phase Status In Orbit
Owner/State SPXS/US

Large Constellations

Loading constellations...